Regional Weather Roundup
Issued by NWS

Home | Current Version | Previous Version | Graphics & Text | Print | Product List | Glossary On
Versions: 1 2 3 4 5 6 7 8 9 10 11 12 13 14 15 16 17 18 19 20 21 22 23 24 25 26 27 28 29 30 31 32 33 34 35 36 37 38 39 40 41 42 43 44 45 46 47 48 49 50
000
ASUS43 KFSD 032102
RWRSD

WEATHER ROUNDUP FOR SOUTH DAKOTA
NATIONAL WEATHER SERVICE SIOUX FALLS SD
400 PM CDT FRI JUL 03 2015

NOTE: "FAIR" INDICATES FEW OR NO CLOUDS BELOW 12,000 FEET WITH NO
SIGNIFICANT WEATHER AND/OR OBSTRUCTIONS TO VISIBILITY.


SDZ001>005-009-010-012>017-032200-
NORTHWEST AND NORTH CENTRAL SOUTH DAKOTA

CITY           SKY/WX    TMP DP  RH WIND       PRES   REMARKS
BUFFALO          N/A     84  56  38 S9        29.93F
FAITH            N/A     83  59  44 SW9       29.99F
MOBRIDGE       PTSUNNY   82  65  56 CALM      29.95S HAZE
$$

SDZ012>016-024>037-041>051-057-063-072>074-032200-
SOUTHWEST AND SOUTH CENTRAL SOUTH DAKOTA

CITY           SKY/WX    TMP DP  RH WIND       PRES   REMARKS
RAPID CTY ARPT SUNNY     80  60  50 SE8       30.02F
PIERRE         SUNNY     80  62  54 SW3       29.96F HAZE
CUSTER         MOSUNNY   71  54  54 SE8       30.15F
ELLSWORTH AFB  MOSUNNY   81  62  52 SE8       30.02F
PHILIP         SUNNY     84  61  45 NE3       29.99F HAZE
PINE RIDGE     MOSUNNY   82  56  40 VRB3      30.04F
WINNER         FAIR      85  53  33 CALM      29.98F
$$

SDZ004>011-016>023-039-040-032200-
NORTHEAST SOUTH DAKOTA

CITY           SKY/WX    TMP DP  RH WIND       PRES   REMARKS
ABERDEEN       PTSUNNY   82  63  52 NE5       29.94F HAZE
WATERTOWN      MOSUNNY   80  64  58 W9        29.96F
BROOKINGS      PTSUNNY   79  64  61 N3        29.98F
SISSETON         N/A     82  63  52 MISG      29.92F
$$

SDZ017-020-022-023-036>040-048>070-032200-
SOUTHEAST SOUTH DAKOTA

CITY           SKY/WX    TMP DP  RH WIND       PRES   REMARKS
SIOUX FALLS    PTSUNNY   77  63  61 W5        29.98F
HURON          MOSUNNY   80  66  62 SW5       29.94F
CHAMBERLAIN    PTSUNNY   80  65  59 S5        29.97F
MITCHELL       MOSUNNY   80  66  62 S5        29.97F
YANKTON        SUNNY     75  63  64 W3        29.96F
$$

ABBREVIATIONS USED IN REMARKS
   TC - TEMPERATURE IN CELSIUS
  WCI - WIND CHILL INDEX
   HX - HEAT INDEX
  VSB - VISIBILITY



USA.gov is the U.S. government's official web portal to all federal, state and local government web resources and services.